星链-4595 (STARLINK-4595 )

导读 | 星芒AI

STARLINK-4595 是 SpaceX Starlink 项目中的一颗低轨通信卫星,属于该系列的第 4595 颗发射卫星。它主要用于提供全球范围内的高速互联网服务,特别是在偏远和网络基础设施薄弱的地区。该卫星运行在约 550 公里的轨道高度,配备先进的相控阵天线和激光通信系统,以实现高效的数据传输和卫星间通信。作为 Starlink 卫星群的一部分,STARLINK-4595 有助于提升全球互联网接入的覆盖范围和稳定性。

基本信息
目录编号:
53627
目录名称:
STARLINK-4595
国际标识:
2022-104AR
轨道中心:
EARTH
卫星名称:
星链-4595
卫星全名:
星链-4595 (STARLINK-4595 )
卫星状态:
在轨 (已飞行1211 天)
发射日期:
2022-08-28 UTC
国别 :
美国 (US)
星等 :
--
轨道信息
数据来源 国际轨道数据 AOE轨道数据
星历时间 2025-12-21T08:39:30+0800
7小时前
查看轨道信息
2025-12-15T14:00:00+0800
6天前
查看轨道信息
半长轴 6917.896km 6917.844km
偏心率 0.0001541 0.0001318
轨道倾角 53.216° 53.216°
近地点辐角 90.195° 91.819°
升交点赤经 226.968° 252.908°
平近点角 269.921° 189.265°
近地点 538.692km 538.797km
远地点 540.826km 540.621km
周期 95.438分钟 95.437分钟
每日圈数 15.088349 15.08852
详细信息
固有亮度:
5
最大亮度:
2.5
卫星平台:
Starlink v1.5
覆盖范围:
全球
运营商:
太空探索技术公司
运营商所在国:
美国
制造商(研发单位):
太空探索技术公司
制造商所在国:
美国
使用方式:
暂无
卫星简介
星链(Starlink)计划是由太空探索技术公司(SpaceX)提出的一个巨型低轨卫星互联网星座项目,计划在2019年至2024年间在太空搭建由约1.2万颗卫星组成的“星链”网络,其中1584颗将部署在地球上空550千米处的近地轨道,并从2020年开始工作。该卫星仍在工作。
2D轨道图
3D轨道图
轨道高度分析图
轨道倾角分析图
轨道综合分析图
查看轨道综合分析图